Weather Service Report


660 
ASUS45 KABQ 302310
RWRNM 
NEW MEXICO REGIONAL WEATHER ROUNDUP
NATIONAL WEATHER SERVICE ALBUQUERQUE NM
500 PM MDT THU JUL 30 2015

NOTE: "FAIR" MEANS FEW OR NO CLOUDS BELOW 12,000 FEET AGL WITH NO
       SIGNIFICANT WEATHER OR OBSTRUCTIONS TO VISION.

      THIS PRODUCT IS RELEASED AS TWO VERSIONS.  ONE VERSION NEAR
      THE TOP OF THE HOUR CONTAINING PRELIMINARY DATA FROM ALBUQUERQUE
      AND OTHER STATIONS.  A FINAL VERSION WITH ADDITIONAL DATA IS 
      ISSUED ABOUT 10 MINUTES AFTER THE HOUR.
 
NMZ501-503-504-510>518-310000-
NORTHWEST PLATEAU/NORTHCENTRAL MOUNTAINS
  
CITY           SKY/WX    TMP DP  RH WIND       PRES   REMARKS
FARMINGTON     PTSUNNY   85  52  32 S9G18     30.23F                  
LOS ALAMOS     PTSUNNY   71  54  55 S5        30.44S                  
SANTA FE       CLOUDY    74  54  49 NW3       30.36F                  
TAOS           MOSUNNY  N/A N/A N/A S7        30.41F                  
ANGEL FIRE     RAIN      58  54  84 NE3       30.53F                  

$$
NMZ402-403-502-505>509-310000-
WESTCENTRAL MOUNTAINS/SOUTHWEST MOUNTAINS
  
CITY           SKY/WX    TMP DP  RH WIND       PRES   REMARKS
GALLUP         CLOUDY    70  56  61 NW3       30.35F                  
GRANTS         CLOUDY    67  62  82 CALM      30.39F                  
SILVER CITY      N/A     82  57  42 S5        30.27F                  

$$
NMZ407-409-411-412-310000-
SOUTHERN DESERTS
  
CITY           SKY/WX    TMP DP  RH WIND       PRES   REMARKS
LORDSBURG      FAIR      86  59  39 CALM      30.16F                  
DEMING         SUNNY     87  58  37 VRB6      30.17F                  
LAS CRUCES     SUNNY     83  61  46 NE5       30.21F                  
HOLLOMAN AFB   MOSUNNY   87  59  38 CALM      30.17F                  
ALAMOGORDO     PTSUNNY   84  57  39 SW8       30.19F                  
T OR C         MOSUNNY   83  59  44 E5        30.21F                  

$$
NMZ519>523-310000-
CENTRAL VALLEYS/CENTRAL HIGHLANDS
  
CITY           SKY/WX    TMP DP  RH WIND       PRES   REMARKS
ALBUQUERQUE    PTSUNNY   82  55  39 CALM      30.30S                  
DOUBLE EAGLE   PTSUNNY   75  57  53 VRB6      30.34S                  
MORIARTY ARPT    N/A     71  59  66 S20G26    30.40R                  
CLINES CORNERS HVY RAIN  60  55  83 SE33G43   30.44R VSB 1/2          
BELEN          MOCLDY    81  54  39 SE3       30.28F                  
SOCORRO        FAIR      82  58  43 W12G18    30.23F                  

$$
NMZ524>526-539-540-310000-
SOUTHCENTRAL MOUNTAINS
  
CITY           SKY/WX    TMP DP  RH WIND       PRES   REMARKS
RUIDOSO          N/A    N/A N/A N/A MISG        N/A                   

$$
NMZ527>531-310000-
NORTHEAST HIGHLANDS/NORTHEAST PLAINS
  
CITY           SKY/WX    TMP DP  RH WIND       PRES   REMARKS
LAS VEGAS      PTSUNNY   73  55  53 S12       30.42S                  
RATON          MOSUNNY   74  56  53 S7        30.36F                  
CLAYTON        CLOUDY    78  62  57 S10       30.31F                  

$$
NMZ532>537-310000-
EASTCENTRAL PLAINS
  
CITY           SKY/WX    TMP DP  RH WIND       PRES   REMARKS
TUCUMCARI      PTSUNNY   84  61  45 SE5       30.24F                  
CANNON AFB     PTSUNNY   85  62  44 E8        30.23F                  
CLOVIS AIRPORT CLOUDY    84  61  45 E8        30.25S                  

$$
NMZ028-029-538-310000-
SOUTHEAST PLAINS
  
CITY           SKY/WX    TMP DP  RH WIND       PRES   REMARKS
ROSWELL        MOSUNNY   94  56  27 SE15G22   30.14F                  
ARTESIA        MOSUNNY   93  55  27 SE12      30.13F                  
CARLSBAD       MOSUNNY   97  53  22 E13G25    30.09F                  
HOBBS          MOSUNNY   91  54  27 E13       30.16F                  


$$

Return to Home page


Western Regional Climate Center, wrcc@dri.edu